Showing default

METEOSAT 12 (MTG I1), 54743

Orbit data source: Space-Track

METEOSAT 12 (MTG I1), 54743 is a payload satellite owned by EUMETSAT (DE) in GEO that was launched on Tue, 13 Dec 2022 UTC via an ARIANE 5ECA+ launch vehicle from the French Guiana (FRGUI). Payload-class satellites include a variety of spacecraft equipped with specific instruments for various scientific and technological missions. These include communications satellites like Starlink; space stations such as the ISS; scientific satellites like the Hubble; Earth observation satellites from companies like Planet Labs, Umbra, and HawkEye 360; GPS; miniature CubeSats for education and research; and military/defense satellites.

Not visible in the next 10 days
Identifier
54743, 2022-170C
Orbit
GEO
Country
Flag of UnknownUnknown / EUME
Related business
Manufacturer
Thales Alenia
Mission
Operational Civil Weather
Bus & Motor
MTG, S400 X2
Mass
3,760 kg wet, ~2,500 kg dry
Launch date (UTC)
2022-12-13 (3 years ago)
Launch vehicle
ARIANE 5ECA+
Launch site
French Guiana (FRGUI)
Object type
Payload
Rocket body
Debris
Shape & HBR
Box + 2 Pan, 5.0 m
Radar Cross Section
19.366 m², Large (>1 m²)

Expand to show TLE details & history
Last TLE update: 14 hours ago

TLE from 14 hours ago
0 METEOSAT 12 (MTG I1)
1 54743U 22170C   25308.25037095  .00000005  00000-0  00000+0 0  9998
2 54743   0.6794  24.9668 0001448 188.9375 279.6891  1.00268683 10720
Epoch: 2025-11-04T06:00Z
TLE epoch observation values (Epoch: 2025-11-04T06:00:32.050Z)
Latitude
0.62326°
Longitude
-0.33422°
Altitude
35,785.856 km
Speed
3.075 km/s
True Right ascension
08h 54m 09s
True Declination
0° 37' 21"
Sunlit
Object was in daylight at epoch
Visualization orbit readout
Latitude
Unknown
Longitude
Unknown
Altitude
Unknown
Speed
Unknown
Apparent Right ascension
Unknown
Apparent Declination
Unknown
Sunlit
N/A
Visualization observer readout
Local Sidereal Time
16:24:13
Azimuth
Unknown
Elevation
Unknown
Doppler factor
Unknown
Orbital elements
Apogee altitude
35,794.64 km
Perigee altitude
35,782.429 km
Semi-major axis
42,166.672 km
Eccentricity
0.00014
Inclination
0.6794°
RAAN
24.9668°
Arg. of periapsis
188.9375°
True anomaly
279.67274°
Mean anomaly
279.6891°
Eccentric anomaly
279.68092°
Mean motion
0.25066 °/min
Orbital period
1,436.19 mins
BSTAR
0
Loading maneuver chart data...
Computing Atmospheric mass density...
Loading historical data...
Loading historical data...
Loading historical data...
Loading historical data...
Loading historical data...
Loading historical data...
Loading historical data...
Other satellites on launch #170 in the year 2022 (2022-12-13 UTC)

Documentation

Showing up to 5 results
|